SINAH 1

Last updated on Sun Jun 21 2026 00:02:51 GMT+0000 (Coordinated Universal Time)

1 28893U 05043D 26171.40278067 .00000224 00000+0 51932-4 0 9994 2 28893 98.2865 305.7437 0013138 265.6982 94.2719 14.64159377100991
UTC large
Height (km)
Speed (km/s)
/
Latitude / Longitude
Inclination (degrees)
Orbital Period (minutes)
Azimuth
Elevation
Range (km)
Doppler Factor

Next 0 passes for location: London (51.5072 / 0.1276)

No passes found over London.
SINAH 1